Simultaneous Nadir Overpasses (SNOs) Predictions

Prediction of SNOs between AQUA and NOAA-19 Satellite Orbit:

Table of predicted SNOs for the next 14.0 days since TLE Epoch: 4/17/2020
Index Date (AQUA) Time (AQUA) Lat,Lon (AQUA) SZA (AQUA ) Date (NOAA-19) Time (NOAA-19) Lat,Lon (NOAA-19) SZA (NOAA-19 ) Distance(km) Time Diff (sec)
1 04/18/2020 07:49:49 79.85, 33.24 70.11 04/18/2020 07:48:50 79.86, 33.21 70.14 0.96 59
2 04/18/2020 08:39:15 -79.87,-159.22 109.88 04/18/2020 08:39:47 -79.88,-159.24 109.88 1.89 32
3 04/20/2020 14:12:59 79.85, -62.52 69.32 04/20/2020 14:13:09 79.88, -62.57 69.35 3.17 10
4 04/22/2020 19:46:42 -79.86, 33.97 111.43 04/22/2020 19:46:26 -79.85, 33.90 111.42 1.48 16
5 04/25/2020 01:20:26 79.85, 130.59 67.83 04/25/2020 01:19:49 79.84, 130.48 67.84 2.64 37
6 04/25/2020 02:09:52 -79.86, -61.82 112.18 04/25/2020 02:10:44 -79.88, -61.74 112.19 2.89 52
7 04/27/2020 06:54:08 -79.83,-132.64 112.94 04/27/2020 06:53:04 -79.84,-132.69 112.89 1.99 64
8 04/27/2020 07:43:36 79.86, 34.76 67.10 04/27/2020 07:44:08 79.85, 34.62 67.10 2.81 32
9 04/29/2020 13:17:19 -79.87, 131.25 113.59 04/29/2020 13:17:23 -79.84, 131.34 113.61 3.03 4
10 05/01/2020 18:51:02 79.84,-131.98 65.70 05/01/2020 18:50:46 79.85,-131.86 65.70 2.35 16




NCC Satellite Simultaneous Nadir Overpasses (SNOs) Prediction Service
